When you browse on this site, cookies collect data to enhance your experience and personalize the content and advertising you see.
Visit our Privacy Policy to learn more. By continuing to use the site, you agree to this use of cookies and data.
  • In Latvia
  • List of Countries
  • For 7 days
  • Water Temperature
  • Satellite Maps
  • Weather Map
  • Weather Widgets
  • user-avatar
    Login

    Hourly Weather Novoe Beloklyuche

    Today, 26 June, Wednesday

    Time Temperature Precipitation Wind Pressure Humidity
    00:00 +15°C° 0 mm 2 mps 759 mmHg 82%
    01:00 +15°C° 0 mm 2 mps 759 mmHg 82%
    02:00 +14°C° 0 mm 2 mps 759 mmHg 83%
    03:00 +14°C° 0 mm 2 mps 759 mmHg 82%
    04:00 +15°C° 0 mm 2 mps 759 mmHg 80%
    05:00 +16°C° 0 mm 3 mps 759 mmHg 79%
    06:00 +16°C° 0 mm 3 mps 759 mmHg 77%
    07:00 +17°C° 0 mm 4 mps 758 mmHg 73%
    08:00 +18°C° 0 mm 4 mps 758 mmHg 69%
    09:00 +19°C° 0 mm 4 mps 758 mmHg 65%
    10:00 +20°C° 0.1 mm 4 mps 758 mmHg 63%
    11:00 +20°C° 0.1 mm 5 mps 758 mmHg 62%
    12:00 +21°C° 0.1 mm 5 mps 758 mmHg 60%
    13:00 +21°C° 0.1 mm 4 mps 758 mmHg 58%
    14:00 +21°C° 0.1 mm 4 mps 758 mmHg 56%
    15:00 +21°C° 0.1 mm 4 mps 758 mmHg 54%
    16:00 +20°C° 0 mm 4 mps 757 mmHg 57%
    17:00 +20°C° 0 mm 3 mps 757 mmHg 60%
    18:00 +19°C° 0 mm 3 mps 757 mmHg 63%
    19:00 +18°C° 0 mm 3 mps 757 mmHg 67%
    20:00 +16°C° 0 mm 2 mps 757 mmHg 72%
    21:00 +14°C° 0 mm 1 mps 757 mmHg 76%
    22:00 +14°C° 0 mm 1 mps 756 mmHg 77%
    23:00 +13°C° 0 mm 1 mps 756 mmHg 79%

    Tomorrow, 27 June, Thursday

    Time Temperature Precipitation Wind Pressure Humidity
    00:00 +12°C° 0 mm 0 mps 755 mmHg 81%
    01:00 +13°C° 0 mm 1 mps 755 mmHg 79%
    02:00 +13°C° 0 mm 1 mps 755 mmHg 77%
    03:00 +13°C° 0 mm 1 mps 754 mmHg 75%
    04:00 +14°C° 0.1 mm 2 mps 754 mmHg 76%
    05:00 +14°C° 0.1 mm 2 mps 753 mmHg 77%
    06:00 +13°C° 0.1 mm 3 mps 752 mmHg 78%
    07:00 +13°C° 0.7 mm 4 mps 752 mmHg 83%
    08:00 +12°C° 0.7 mm 4 mps 751 mmHg 88%
    09:00 +12°C° 0.7 mm 5 mps 750 mmHg 94%
    10:00 +14°C° 0.1 mm 5 mps 750 mmHg 91%
    11:00 +15°C° 0.1 mm 5 mps 750 mmHg 88%
    12:00 +16°C° 0.1 mm 5 mps 749 mmHg 85%
    13:00 +17°C° 0.2 mm 6 mps 749 mmHg 79%
    14:00 +17°C° 0.2 mm 6 mps 749 mmHg 73%
    15:00 +18°C° 0.2 mm 7 mps 749 mmHg 68%
    16:00 +17°C° 0 mm 6 mps 749 mmHg 71%
    17:00 +15°C° 0 mm 6 mps 748 mmHg 74%
    18:00 +14°C° 0 mm 5 mps 748 mmHg 77%
    19:00 +13°C° 0 mm 4 mps 748 mmHg 81%
    20:00 +11°C° 0 mm 3 mps 748 mmHg 86%
    21:00 +10°C° 0 mm 2 mps 748 mmHg 90%
    22:00 +10°C° 0 mm 2 mps 748 mmHg 91%
    23:00 +9°C° 0 mm 2 mps 748 mmHg 93%

    Day after tomorrow, 28 June, Friday

    Time Temperature Precipitation Wind Pressure Humidity
    00:00 +9°C° 0 mm 2 mps 747 mmHg 94%
    01:00 +10°C° 0 mm 1 mps 747 mmHg 94%
    02:00 +10°C° 0 mm 1 mps 747 mmHg 94%
    03:00 +10°C° 0 mm 1 mps 746 mmHg 94%
    04:00 +10°C° 0.1 mm 1 mps 746 mmHg 93%
    05:00 +10°C° 0.1 mm 2 mps 746 mmHg 91%
    06:00 +12°C° 0.1 mm 2 mps 745 mmHg 89%
    07:00 +11°C° 0.5 mm 3 mps 745 mmHg 91%
    08:00 +11°C° 0.5 mm 3 mps 744 mmHg 92%
    09:00 +11°C° 0.5 mm 4 mps 744 mmHg 94%
    10:00 +12°C° 0.1 mm 4 mps 744 mmHg 91%
    11:00 +13°C° 0.1 mm 5 mps 743 mmHg 89%
    12:00 +14°C° 0.1 mm 6 mps 743 mmHg 86%
    13:00 +17°C° 0 mm 5 mps 742 mmHg 82%
    14:00 +20°C° 0 mm 5 mps 742 mmHg 78%
    15:00 +23°C° 0 mm 5 mps 742 mmHg 74%
    16:00 +22°C° 0.7 mm 4 mps 741 mmHg 77%
    17:00 +21°C° 0.7 mm 3 mps 741 mmHg 79%
    18:00 +20°C° 0.7 mm 2 mps 741 mmHg 82%
    19:00 +20°C° 0.2 mm 2 mps 741 mmHg 83%
    20:00 +19°C° 0.2 mm 2 mps 741 mmHg 85%
    21:00 +18°C° 0.2 mm 2 mps 741 mmHg 86%
    22:00 +18°C° 0.2 mm 2 mps 741 mmHg 88%
    23:00 +17°C° 0.2 mm 2 mps 741 mmHg 90%

    29 June, Saturday

    Time Temperature Precipitation Wind Pressure Humidity
    00:00 +16°C° 0.2 mm 2 mps 740 mmHg 92%
    01:00 +16°C° 0.1 mm 2 mps 741 mmHg 93%
    02:00 +16°C° 0.1 mm 2 mps 741 mmHg 94%
    03:00 +16°C° 0.1 mm 2 mps 741 mmHg 95%
    04:00 +17°C° 0 mm 2 mps 741 mmHg 95%
    05:00 +18°C° 0 mm 3 mps 741 mmHg 94%
    06:00 +18°C° 0 mm 3 mps 741 mmHg 94%
    07:00 +19°C° 0 mm 4 mps 742 mmHg 87%
    08:00 +20°C° 0 mm 4 mps 742 mmHg 80%
    09:00 +21°C° 0 mm 5 mps 742 mmHg 73%
    10:00 +22°C° 0 mm 6 mps 742 mmHg 68%
    11:00 +23°C° 0 mm 6 mps 743 mmHg 62%
    12:00 +23°C° 0 mm 6 mps 743 mmHg 57%
    13:00 +23°C° 0 mm 6 mps 743 mmHg 57%
    14:00 +23°C° 0 mm 6 mps 744 mmHg 57%
    15:00 +23°C° 0 mm 6 mps 744 mmHg 57%
    16:00 +23°C° 0 mm 5 mps 744 mmHg 61%
    17:00 +22°C° 0 mm 4 mps 745 mmHg 65%
    18:00 +21°C° 0 mm 3 mps 745 mmHg 69%
    19:00 +20°C° 0 mm 3 mps 745 mmHg 72%
    20:00 +18°C° 0 mm 3 mps 746 mmHg 75%
    21:00 +16°C° 0 mm 2 mps 746 mmHg 77%
    22:00 +16°C° 0 mm 2 mps 746 mmHg 77%
    23:00 +16°C° 0 mm 2 mps 746 mmHg 77%

    30 June, Sunday

    Time Temperature Precipitation Wind Pressure Humidity
    00:00 +15°C° 0 mm 2 mps 746 mmHg 77%
    01:00 +15°C° 0 mm 2 mps 747 mmHg 79%
    02:00 +14°C° 0 mm 1 mps 747 mmHg 80%
    03:00 +14°C° 0 mm 1 mps 747 mmHg 82%
    04:00 +15°C° 0 mm 1 mps 747 mmHg 80%
    05:00 +16°C° 0 mm 1 mps 748 mmHg 77%
    06:00 +15°C° 0 mm 0 mps 748 mmHg 75%
    07:00 +16°C° 0 mm 0 mps 748 mmHg 71%
    08:00 +19°C° 0 mm 1 mps 748 mmHg 67%
    09:00 +20°C° 0 mm 1 mps 748 mmHg 63%
    10:00 +21°C° 0 mm 1 mps 748 mmHg 61%
    11:00 +22°C° 0 mm 1 mps 748 mmHg 59%
    12:00 +23°C° 0 mm 1 mps 748 mmHg 56%
    13:00 +23°C° 0 mm 1 mps 748 mmHg 53%
    14:00 +24°C° 0 mm 1 mps 748 mmHg 50%
    15:00 +24°C° 0 mm 1 mps 748 mmHg 47%
    16:00 +24°C° 0.2 mm 1 mps 749 mmHg 55%
    17:00 +23°C° 0.2 mm 2 mps 749 mmHg 63%
    18:00 +21°C° 0.2 mm 3 mps 749 mmHg 70%
    19:00 +19°C° 0.1 mm 3 mps 749 mmHg 77%
    20:00 +18°C° 0.1 mm 2 mps 750 mmHg 84%
    21:00 +16°C° 0.1 mm 2 mps 750 mmHg 91%
    22:00 +16°C° 0 mm 2 mps 750 mmHg 91%
    23:00 +15°C° 0 mm 1 mps 750 mmHg 92%

    1 July, Monday

    Time Temperature Precipitation Wind Pressure Humidity
    00:00 +15°C° 0 mm 1 mps 750 mmHg 92%
    01:00 +15°C° 0 mm 1 mps 750 mmHg 93%
    02:00 +15°C° 0 mm 1 mps 751 mmHg 93%
    03:00 +15°C° 0 mm 1 mps 751 mmHg 93%
    04:00 +15°C° 0 mm 2 mps 751 mmHg 92%
    05:00 +16°C° 0 mm 3 mps 751 mmHg 91%
    06:00 +17°C° 0 mm 3 mps 751 mmHg 89%
    07:00 +17°C° 0 mm 5 mps 751 mmHg 83%
    08:00 +19°C° 0 mm 6 mps 750 mmHg 76%
    09:00 +20°C° 0 mm 7 mps 750 mmHg 70%
    10:00 +21°C° 0.1 mm 7 mps 750 mmHg 69%
    11:00 +21°C° 0.1 mm 7 mps 750 mmHg 69%
    12:00 +22°C° 0.1 mm 7 mps 749 mmHg 69%
    13:00 +21°C° 0.6 mm 6 mps 749 mmHg 76%
    14:00 +19°C° 0.6 mm 6 mps 749 mmHg 84%
    15:00 +17°C° 0.6 mm 6 mps 748 mmHg 91%
    16:00 +17°C° 1.5 mm 5 mps 748 mmHg 92%
    17:00 +17°C° 1.5 mm 5 mps 748 mmHg 94%
    18:00 +18°C° 1.5 mm 4 mps 747 mmHg 95%
    19:00 +18°C° 0.9 mm 3 mps 747 mmHg 96%
    20:00 +17°C° 0.9 mm 3 mps 747 mmHg 97%
    21:00 +17°C° 0.9 mm 2 mps 747 mmHg 98%
    22:00 +17°C° 0 mm 2 mps 747 mmHg 97%
    23:00 +18°C° 0 mm 1 mps 747 mmHg 97%
    Show more